Startpagina
METAR-TAF:

METAR-TAF

Vliegvelden :

Grangeville, Idaho, Verenigde Staten

breedte: 45-56-33N, lengte: 116-07-24W, hoogte: 1010 m

Actueel weer

Dit bericht is 7 minuten geleden gemaakt, om 13:35 UTC
Weinig wind
Temperatuur 1°C
Vochtigheid 86%
Druk 1016 hPa
Zicht: 16.1 km
Onbewolkt

METAR: KGIC 191335Z AUTO 00000KT 10SM CLR 01/M01 A3001 RMK AO1

Tijdstip: 06:42 (13:42 UTC)


TAF: ontbreekt

Waarnemingen en weersverwachtingen van meer dan 4000 vliegvelden (METAR en TAF).

De beschikbare stations zijn de gele en rode punten op de kaart.

Ga met uw muis naar het station om de naam te zien.

Klik dan om waarnemingen en weersverwachtingen te zien.

kaart wijzigen: klik op de groene knoppen met een zwart kruis om in te zoomen, op de groene knop met een streepje om uit te zoomen of op de groene pijlen voor aangrenzende kaarten.


METAR-TAF: